TimeEDT,TemperatureF,Dew PointF,Humidity,Sea Level PressureIn,VisibilityMPH,Wind Direction,Wind SpeedMPH,Gust SpeedMPH,PrecipitationIn,Events,Conditions,WindDirDegrees,DateUTC
12:23 AM,57.2,57.2,100,29.65,1.8,Calm,Calm,-,N/A,,Clear,0,2013-11-02 04:23:00
12:28 AM,55.4,55.4,100,29.66,0.8,Calm,Calm,-,N/A,,Mist,0,2013-11-02 04:28:00
12:42 AM,53.6,53.6,100,29.67,0.2,Calm,Calm,-,N/A,Fog,Fog,0,2013-11-02 04:42:00
12:53 AM,55.0,54.0,96,29.68,0.5,South,3.5,-,N/A,Fog,Fog,190,2013-11-02 04:53:00
1:11 AM,55.4,55.4,100,29.68,0.2,SSW,3.5,-,N/A,Fog,Fog,200,2013-11-02 05:11:00
1:53 AM,53.1,52.0,96,29.67,0.2,Calm,Calm,-,N/A,Fog,Fog,0,2013-11-02 05:53:00
2:36 AM,53.6,51.8,94,29.67,0.5,Calm,Calm,-,N/A,Fog,Fog,0,2013-11-02 06:36:00
2:53 AM,53.1,52.0,96,29.65,0.8,North,3.5,-,N/A,,Overcast,360,2013-11-02 06:53:00
2:59 AM,53.6,51.8,94,29.66,2.0,Calm,Calm,-,N/A,,Overcast,0,2013-11-02 06:59:00
3:12 AM,53.6,53.6,100,29.66,4.0,Variable,3.5,-,N/A,,Overcast,0,2013-11-02 07:12:00
3:53 AM,57.0,55.0,93,29.65,10.0,North,9.2,-,N/A,,Overcast,10,2013-11-02 07:53:00
4:53 AM,55.9,50.0,80,29.69,10.0,ENE,4.6,-,N/A,,Overcast,60,2013-11-02 08:53:00
5:53 AM,55.0,48.9,80,29.68,10.0,East,4.6,-,0.00,,Overcast,80,2013-11-02 09:53:00
6:53 AM,54.0,46.0,75,29.67,10.0,ENE,3.5,-,N/A,,Mostly Cloudy,70,2013-11-02 10:53:00
7:53 AM,48.0,44.1,86,29.69,10.0,Calm,Calm,-,N/A,,Clear,0,2013-11-02 11:53:00
8:53 AM,55.0,48.9,80,29.70,10.0,Calm,Calm,-,N/A,,Scattered Clouds,0,2013-11-02 12:53:00
9:53 AM,57.9,50.0,75,29.68,10.0,ENE,3.5,-,N/A,,Clear,70,2013-11-02 13:53:00
10:53 AM,62.1,48.0,60,29.67,10.0,NE,5.8,-,N/A,,Clear,50,2013-11-02 14:53:00
11:53 AM,64.0,48.0,56,29.67,10.0,SE,5.8,-,N/A,,Clear,130,2013-11-02 15:53:00
12:53 PM,64.0,46.9,54,29.65,10.0,ESE,4.6,-,N/A,,Partly Cloudy,120,2013-11-02 16:53:00
1:53 PM,63.0,48.0,58,29.64,10.0,ESE,6.9,-,N/A,,Mostly Cloudy,120,2013-11-02 17:53:00
2:53 PM,64.0,46.9,54,29.64,10.0,SE,4.6,-,N/A,,Clear,130,2013-11-02 18:53:00
3:53 PM,63.0,50.0,63,29.65,10.0,SSE,4.6,-,N/A,,Clear,160,2013-11-02 19:53:00
4:53 PM,61.0,50.0,67,29.65,10.0,Calm,Calm,-,N/A,,Clear,0,2013-11-02 20:53:00
5:53 PM,57.0,48.0,72,29.66,10.0,SW,3.5,-,N/A,,Clear,230,2013-11-02 21:53:00
6:53 PM,55.0,46.9,74,29.70,10.0,Calm,Calm,-,N/A,,Clear,0,2013-11-02 22:53:00
7:53 PM,52.0,46.0,80,29.70,10.0,West,3.5,-,N/A,,Partly Cloudy,280,2013-11-02 23:53:00
8:53 PM,55.0,45.0,69,29.73,10.0,Calm,Calm,-,N/A,,Clear,0,2013-11-03 00:53:00
9:53 PM,48.9,43.0,80,29.76,10.0,Calm,Calm,-,N/A,,Clear,0,2013-11-03 01:53:00
10:53 PM,48.0,43.0,83,29.76,10.0,NW,3.5,-,N/A,,Clear,310,2013-11-03 02:53:00
11:53 PM,48.9,42.1,77,29.77,10.0,Calm,Calm,-,N/A,,Clear,0,2013-11-03 03:53:00